Location: Bayou Vista
(29.6905°N, 91.2709°W)
Time: 07:17:26
(UTC+00:00)

Transit 4A - Pass Details

Date: 10 August 2024
Orbit: 867 x 976 km, 66.8° (Epoch: 08 September)

Event Time Altitude Azimuth Distance (km) Brightness Sun altitude
Rises 01:50:48 0° 346° (NNW) 3,566 11.6 -12.9°
Reaches altitude 10° 01:53:34 10° 356° (N) 2,639 10.7 -13.4°
Maximum altitude 01:59:05 33° 59° (ENE) 1,524 8.8 -14.5°
Enters shadow 02:02:18 21° 107° (ESE) 1,994 9.0 -15.1°
